Regional Weather Roundup
Issued by NWS

Home | Current Version | Previous Version | Graphics & Text | Print | Product List | Glossary Off
Versions: 1 2 3 4 5 6 7 8 9 10 11 12 13 14 15 16 17 18 19 20 21 22 23 24 25 26 27 28 29 30 31 32 33 34 35 36 37 38 39 40 41 42 43 44 45 46 47 48 49 50

000
ASUS43 KMKX 200000
RWRWI

WISCONSIN REGIONAL WEATHER ROUNDUP
NATIONAL WEATHER SERVICE MILWAUKEE/SULLIVAN WI
700 PM CDT FRI SEP 19 2014

NOTE: "FAIR" INDICATES FEW OR NO CLOUDS BELOW 12,000 FEET WITH NO
SIGNIFICANT WEATHER AND/OR OBSTRUCTIONS TO VISIBILITY.

WIZ001-002-006>008-014>016-023>028-200100-
NORTHWEST WISCONSIN

CITY           SKY/WX    TMP DP  RH WIND       PRES   REMARKS
SUPERIOR ARPT  MOCLDY    64  62  94 SW10      29.62F
ASHLAND        CLOUDY    66  58  75 SW7       29.65F
6HR MIN TEMP:  65; 6HR MAX TEMP:  70; 6HR PCP: TRACE;

HAYWARD        LGT RAIN  65  60  84 S13       29.65F
6HR MIN TEMP:  65; 6HR MAX TEMP:  67; 6HR PCP: TRACE;

SIREN          LGT RAIN  65  62  91 S7        29.67F
RICE LAKE      CLOUDY    70  59  68 S9        29.71F
LADYSMITH      CLOUDY    69  58  68 S8        29.75S
EAU CLAIRE     NOT AVBL
MENOMONIE      CLOUDY    74  60  61 S12G21    29.71S
NEW RICHMOND   CLOUDY    70  62  77 CALM      29.69S
OSCEOLA        CLOUDY    69  64  85 CALM      29.70F
$$

WIZ003>005-009-010-017-018-200100-
NORTH CENTRAL WISCONSIN

CITY           SKY/WX    TMP DP  RH WIND       PRES   REMARKS
WOODRUFF       CLOUDY    65  54  66 S13G18    29.74F
RHINELANDER    CLOUDY    65  52  62 S12G23    29.78F
6HR MIN TEMP:  63; 6HR MAX TEMP:  68;

EAGLE RIVER    CLOUDY    64  51  61 SW7       29.76S
LAND O LAKES   CLOUDY    65  53  64 S15G22    29.74F
PHILLIPS       CLOUDY    64  55  72 S9        29.75S
TOMAHAWK       CLOUDY    64  54  68 S3        29.79S
MEDFORD        CLOUDY    66  55  66 S10       29.79S
MERRILL        CLOUDY    67  55  64 SW13      29.80R
$$

WIZ029-030-035-036-043>047-200100-
CENTRAL WISCONSIN

CITY           SKY/WX    TMP DP  RH WIND       PRES   REMARKS
WAUSAU         MOCLDY    68  53  58 SW12G24   29.79R
6HR MIN TEMP:  67; 6HR MAX TEMP:  71;

MOSINEE        PTCLDY    66  55  68 S12       29.81R
MARSHFIELD     PTCLDY    68  54  60 SW9       29.80R
6HR MIN TEMP:  68; 6HR MAX TEMP:  73;

STEVENS POINT  MOCLDY    68  51  54 S22G33    29.80F
WAUPACA        MOCLDY    71  51  48 S14G21    29.82F
WAUTOMA        NOT AVBL
WISC RAPIDS    PTCLDY    69  52  54 S15G31    29.81S
6HR MIN TEMP:  69; 6HR MAX TEMP:  73;

CAMP DOUGLAS   NOT AVBL
$$

WIZ011>013-019>022-031-037>040-048>050-200100-
NORTHEAST WISCONSIN

CITY           SKY/WX    TMP DP  RH WIND       PRES   REMARKS
ANTIGO         CLOUDY    64  53  66 SW12G18   29.81R
STURGEON BAY   MOCLDY    61  52  72 S23G35    29.83F
6HR MIN TEMP:  61; 6HR MAX TEMP:  64;

GREEN BAY      PTCLDY    68  50  52 S13       29.82F
6HR MIN TEMP:  68; 6HR MAX TEMP:  73;

MANITOWOC      NOT AVBL
APPLETON       MOCLDY    68  48  49 S16G23    29.84F
CLINTONVILLE   CLOUDY    70  50  49 S16G23    29.81S
OSHKOSH        PTCLDY    68  51  54 S16G24    29.84F
6HR MIN TEMP:  68; 6HR MAX TEMP:  73;

$$

WIZ032>034-041-042-053>061-200100-
SOUTHWEST WISCONSIN

CITY           SKY/WX    TMP DP  RH WIND       PRES   REMARKS
LA CROSSE      PTCLDY    72  57  59 S9        29.78R
6HR MIN TEMP:  72; 6HR MAX TEMP:  77;

SPARTA         CLEAR     71  52  50 S9G20     29.79R
VIROQUA        FAIR      69  53  57 S14G24    29.80F
BOSCOBEL       PTCLDY    73  53  49 S15G26    29.83F
6HR MIN TEMP:  73; 6HR MAX TEMP:  77;

PRAIRIE DU CHI PTCLDY    73  53  51 SE8       29.82F
PLATTEVILLE    FAIR      71  53  54 S8G21     29.90F
$$

WIZ056-057-062-063-064-067-068-200100-
SOUTH CENTRAL WISCONSIN

CITY           SKY/WX    TMP DP  RH WIND       PRES   REMARKS
BARABOO/DELLS  CLEAR     69  49  48 S18       29.84F
LONE ROCK      NOT AVBL
WATERTOWN      PTCLDY    68  50  52 S9        29.91F
MADISON        MOCLDY    71  51  49 S18G24    29.89F
6HR MIN TEMP:  71; 6HR MAX TEMP:  74;

MIDDLETON      FAIR      71  48  45 S16       29.89F
MONROE         CLEAR     68  54  60 S16       29.92F
JANESVILLE     CLEAR     72  48  43 S13G18    29.93F
$$

WIZ051-052-058>065-066-070>072-200100-
SOUTHEAST WISCONSIN

CITY           SKY/WX    TMP DP  RH WIND       PRES   REMARKS
MILWAUKEE      MOCLDY    65  51  60 S10       29.95F
6HR MIN TEMP:  65; 6HR MAX TEMP:  73;

WAUKESHA       PTCLDY    66  48  52 S9        29.95F
MILWAUKEE/TIMM CLEAR     70  45  40 S10       29.95F
RACINE         PTCLDY    64  52  64 S8        29.98F
6HR MIN TEMP:  64; 6HR MAX TEMP:  70;

BURLINGTON     PTCLDY    65  48  53 S5        29.96F
KENOSHA        PTCLDY    67  46  47 S9        29.97F
6HR MIN TEMP:  67; 6HR MAX TEMP:  73;

FOND DU LAC    PTCLDY    68  49  50 S15G24    29.86F
6HR MIN TEMP:  68; 6HR MAX TEMP:  73;

SHEBOYGAN      PTCLDY    64  51  62 S20G28    29.89F
6HR MIN TEMP:  63; 6HR MAX TEMP:  71;

WEST BEND      PTCLDY    68  46  45 S10G20    29.92F
JUNEAU         PTCLDY    69  49  49 S14G23    29.90F
$$

LSZ147-162-200100-
LAKE SUPERIOR

STATION/POSITION TIME  TEMP    WIND        PRES    WAVE
                       AIR SEA DIR/SP/G            HT/PER
                 (UTC) (F)     (DEG/KT/KT) (MB)    (FT/S)
W MID LAKE BUOY  2250   54 47  250/  6/  6 1003.7F   2/ 4
DEVILS ISLAND    2300   58     220/  8/  9 1004.1R
PORT WING        2300   64     220/  4/  8 1004.1R
SAXON HARBOR     2320   70     200/ 10/ 20 1003.7F
$$

LMZ867-665-643>646-200100-
LAKE MICHIGAN

STATION/POSITION TIME  TEMP    WIND        PRES    WAVE
                       AIR SEA DIR/SP/G            HT/PER
                 (UTC) (F)     (DEG/KT/KT) (MB)    (FT/S)
N MID LAKE BUOY  2250   62 58  200/ 25/ 31 1011.0F   8/ 7
NORTHPORT PIER   2300   61     160/ 11/ 25 1010.5F
SISTER BAY       2312          190/ 27/ 37   N/A
KEWAUNEE LAKESHO 2300   59     180/ 19/ 23 1011.3F
SHEBOYGAN LAKESH 2300   60 55  180/ 25/ 26 1013.3F
PORT WASHINGTON  2340   61     200/  7/ 13 1013.9F
ATWATER BUOY     2300   62     160/ 17/ 21 1015.3F
MILWAUKEE LAKESH 2300   63     150/ 17/ 19   N/A
S MID LAKE BUOY  2250   67 64  170/ 16/ 17 1015.9F   2/ 4
KENOSHA   LAKESH 2300   64     180/ 13/ 16 1014.9S
$$

TC  - TEMPERATURE IN CELSIUS
VSB - VISIBILITY IN STATUTE MILES
WCI - WIND CHILL INDEX
HX  - HEAT INDEX



USA.gov is the U.S. government's official web portal to all federal, state and local government web resources and services.